Time,TemperatureF,DewpointF,PressureIn,WindDirection,WindDirectionDegrees,WindSpeedMPH,WindSpeedGustMPH,Humidity,HourlyPrecipIn,Conditions,Clouds,dailyrainin,SoftwareType,DateUTC
2013-04-08 00:01:00,32.0,26.0,29.86,North,0,0.0,0.0,77,0.00,,,0.00,Meteo,2013-04-08 05:01:00,
2013-04-08 00:06:00,32.0,26.0,29.86,North,0,0.0,0.0,78,0.00,,,0.00,Meteo,2013-04-08 05:06:00,
2013-04-08 00:11:00,32.0,26.0,29.86,North,0,0.0,0.0,78,0.00,,,0.00,Meteo,2013-04-08 05:11:00,
2013-04-08 00:16:00,32.0,26.0,29.86,North,0,0.0,0.0,79,0.00,,,0.00,Meteo,2013-04-08 05:16:00,
2013-04-08 00:21:00,32.0,27.0,29.86,North,0,0.0,0.0,80,0.00,,,0.00,Meteo,2013-04-08 05:21:00,
2013-04-08 00:26:00,32.0,27.0,29.86,North,0,0.0,0.0,80,0.00,,,0.00,Meteo,2013-04-08 05:26:00,
2013-04-08 00:31:00,32.0,27.0,29.86,North,0,0.0,0.0,80,0.00,,,0.00,Meteo,2013-04-08 05:31:00,
2013-04-08 00:36:00,32.0,27.0,29.86,North,0,0.0,0.0,80,0.00,,,0.00,Meteo,2013-04-08 05:36:00,
2013-04-08 00:41:00,32.0,27.0,29.86,North,0,0.0,0.0,81,0.00,,,0.00,Meteo,2013-04-08 05:41:00,
2013-04-08 00:46:00,32.0,27.0,29.86,North,0,0.0,0.0,81,0.00,,,0.00,Meteo,2013-04-08 05:46:00,
2013-04-08 00:51:00,32.0,27.0,29.86,North,0,0.0,0.0,81,0.00,,,0.00,Meteo,2013-04-08 05:51:00,
2013-04-08 00:56:00,32.0,27.0,29.87,North,0,0.0,0.0,81,0.00,,,0.00,Meteo,2013-04-08 05:56:00,
2013-04-08 01:01:00,32.0,27.0,29.87,North,0,0.0,0.0,81,0.00,,,0.00,Meteo,2013-04-08 06:01:00,
2013-04-08 01:06:00,32.0,27.0,29.87,North,0,0.0,0.0,81,0.00,,,0.00,Meteo,2013-04-08 06:06:00,
2013-04-08 01:11:00,32.0,27.0,29.87,North,0,0.0,0.0,81,0.00,,,0.00,Meteo,2013-04-08 06:11:00,
2013-04-08 01:16:00,32.0,27.0,29.87,North,0,0.0,0.0,81,0.00,,,0.00,Meteo,2013-04-08 06:16:00,
2013-04-08 01:21:00,32.0,27.0,29.87,North,0,0.0,0.0,81,0.00,,,0.00,Meteo,2013-04-08 06:21:00,
2013-04-08 01:26:00,32.0,27.0,29.86,North,0,0.0,0.0,81,0.00,,,0.00,Meteo,2013-04-08 06:26:00,
2013-04-08 01:32:00,32.0,27.0,29.86,North,0,0.0,0.0,82,0.00,,,0.00,Meteo,2013-04-08 06:32:00,
2013-04-08 01:37:00,32.0,27.0,29.86,North,0,0.0,0.0,81,0.00,,,0.00,Meteo,2013-04-08 06:37:00,
2013-04-08 01:42:00,32.0,27.0,29.86,North,0,0.0,0.0,81,0.00,,,0.00,Meteo,2013-04-08 06:42:00,
2013-04-08 01:47:00,32.0,27.0,29.86,North,0,0.0,0.0,82,0.00,,,0.00,Meteo,2013-04-08 06:47:00,
2013-04-08 01:53:00,32.0,27.0,29.85,North,0,0.0,1.0,82,0.00,,,0.00,Meteo,2013-04-08 06:53:00,
2013-04-08 01:58:00,32.0,27.0,29.85,North,0,0.0,1.0,83,0.01,,,0.01,Meteo,2013-04-08 06:58:00,
2013-04-08 02:03:00,32.0,27.0,29.85,North,0,0.0,0.0,83,0.01,,,0.01,Meteo,2013-04-08 07:03:00,
2013-04-08 02:08:00,32.0,28.0,29.85,North,0,0.0,0.0,84,0.01,,,0.01,Meteo,2013-04-08 07:08:00,
2013-04-08 02:13:00,32.0,28.0,29.85,North,0,0.0,1.0,85,0.02,,,0.02,Meteo,2013-04-08 07:13:00,
2013-04-08 02:18:00,32.0,28.0,29.85,North,0,0.0,1.0,85,0.02,,,0.02,Meteo,2013-04-08 07:18:00,
2013-04-08 02:23:00,32.0,28.0,29.85,North,0,0.0,1.0,86,0.02,,,0.02,Meteo,2013-04-08 07:23:00,
2013-04-08 02:28:00,32.0,28.0,29.85,North,0,0.0,0.0,86,0.03,,,0.03,Meteo,2013-04-08 07:28:00,
2013-04-08 02:33:00,32.0,29.0,29.85,North,0,0.0,0.0,87,0.03,,,0.03,Meteo,2013-04-08 07:33:00,
2013-04-08 02:38:00,32.0,29.0,29.85,North,0,0.0,0.0,87,0.04,,,0.04,Meteo,2013-04-08 07:38:00,
2013-04-08 02:43:00,32.0,28.0,29.85,North,0,0.0,0.0,86,0.04,,,0.04,Meteo,2013-04-08 07:43:00,
2013-04-08 02:48:00,32.0,29.0,29.85,North,0,0.0,0.0,87,0.04,,,0.04,Meteo,2013-04-08 07:48:00,
2013-04-08 02:53:00,32.0,29.0,29.85,North,0,0.0,0.0,87,0.05,,,0.05,Meteo,2013-04-08 07:53:00,
2013-04-08 02:58:00,32.0,29.0,29.85,North,0,0.0,0.0,88,0.05,,,0.06,Meteo,2013-04-08 07:58:00,
2013-04-08 03:03:00,32.0,29.0,29.85,North,0,0.0,0.0,88,0.05,,,0.06,Meteo,2013-04-08 08:03:00,
2013-04-08 03:08:00,32.0,29.0,29.84,North,0,0.0,0.0,88,0.07,,,0.08,Meteo,2013-04-08 08:08:00,
2013-04-08 03:13:00,32.0,29.0,29.84,North,0,0.0,1.0,88,0.06,,,0.08,Meteo,2013-04-08 08:13:00,
2013-04-08 03:18:00,32.0,29.0,29.84,North,0,0.0,0.0,89,0.07,,,0.09,Meteo,2013-04-08 08:18:00,
2013-04-08 03:23:00,32.0,29.0,29.84,North,0,0.0,0.0,89,0.09,,,0.11,Meteo,2013-04-08 08:23:00,
2013-04-08 03:28:00,32.0,29.0,29.84,North,0,0.0,0.0,89,0.09,,,0.12,Meteo,2013-04-08 08:28:00,
2013-04-08 03:33:00,32.0,29.0,29.84,North,0,0.0,0.0,89,0.10,,,0.13,Meteo,2013-04-08 08:33:00,
2013-04-08 03:38:00,32.0,29.0,29.84,North,0,0.0,0.0,89,0.10,,,0.14,Meteo,2013-04-08 08:38:00,
2013-04-08 03:44:00,32.0,29.0,29.83,NNE,17,0.0,1.0,90,0.11,,,0.15,Meteo,2013-04-08 08:44:00,
2013-04-08 03:49:00,32.0,29.0,29.83,North,0,0.0,0.0,90,0.10,,,0.15,Meteo,2013-04-08 08:49:00,
2013-04-08 03:54:00,32.0,30.0,29.83,NE,43,0.0,1.0,91,0.11,,,0.16,Meteo,2013-04-08 08:54:00,
2013-04-08 04:00:00,32.0,30.0,29.83,NE,43,0.0,1.0,91,0.10,,,0.16,Meteo,2013-04-08 09:00:00,
2013-04-08 04:06:00,32.0,30.0,29.83,NE,54,0.0,1.0,91,0.10,,,0.17,Meteo,2013-04-08 09:06:00,
2013-04-08 04:11:00,32.0,30.0,29.83,NE,39,0.0,1.0,91,0.09,,,0.17,Meteo,2013-04-08 09:11:00,
2013-04-08 04:16:00,32.0,30.0,29.82,NE,55,0.0,1.0,91,0.09,,,0.18,Meteo,2013-04-08 09:16:00,
2013-04-08 04:21:00,32.0,30.0,29.83,North,0,0.0,0.0,91,0.08,,,0.18,Meteo,2013-04-08 09:21:00,
2013-04-08 04:26:00,32.0,30.0,29.83,NE,56,0.0,1.0,91,0.08,,,0.19,Meteo,2013-04-08 09:26:00,
2013-04-08 04:31:00,32.0,30.0,29.82,NE,56,0.0,1.0,92,0.07,,,0.19,Meteo,2013-04-08 09:31:00,
2013-04-08 04:36:00,32.0,30.0,29.82,North,0,0.0,0.0,91,0.06,,,0.20,Meteo,2013-04-08 09:36:00,
2013-04-08 04:41:00,32.0,30.0,29.82,NE,56,0.0,1.0,92,0.06,,,0.20,Meteo,2013-04-08 09:41:00,
2013-04-08 04:46:00,32.0,30.0,29.82,NE,56,1.0,1.0,92,0.05,,,0.20,Meteo,2013-04-08 09:46:00,
2013-04-08 04:51:00,32.0,30.0,29.81,NE,56,0.0,1.0,92,0.06,,,0.21,Meteo,2013-04-08 09:51:00,
2013-04-08 04:56:00,32.0,30.0,29.81,NE,46,0.0,1.0,92,0.05,,,0.21,Meteo,2013-04-08 09:56:00,
2013-04-08 05:01:00,32.0,30.0,29.81,North,0,0.0,0.0,92,0.05,,,0.21,Meteo,2013-04-08 10:01:00,
2013-04-08 05:06:00,32.0,30.0,29.81,NE,48,0.0,1.0,92,0.04,,,0.21,Meteo,2013-04-08 10:06:00,
2013-04-08 05:11:00,32.0,30.0,29.81,NE,48,0.0,1.0,92,0.05,,,0.22,Meteo,2013-04-08 10:11:00,
2013-04-08 05:16:00,32.0,30.0,29.81,NE,46,1.0,2.0,92,0.04,,,0.22,Meteo,2013-04-08 10:16:00,
2013-04-08 05:21:00,32.0,30.0,29.81,NE,43,1.0,2.0,92,0.04,,,0.22,Meteo,2013-04-08 10:21:00,
2013-04-08 05:26:00,32.0,30.0,29.81,NE,39,2.0,3.0,92,0.03,,,0.22,Meteo,2013-04-08 10:26:00,
2013-04-08 05:33:00,32.0,30.0,29.79,NE,53,2.0,3.0,93,0.03,,,0.22,Meteo,2013-04-08 10:33:00,
2013-04-08 05:38:00,32.0,30.0,29.79,NNE,30,2.0,4.0,93,0.02,,,0.22,Meteo,2013-04-08 10:38:00,
2013-04-08 05:43:00,32.0,30.0,29.79,NE,43,2.0,3.0,93,0.02,,,0.22,Meteo,2013-04-08 10:43:00,
2013-04-08 05:48:00,32.0,30.0,29.80,ENE,59,0.0,1.0,93,0.02,,,0.22,Meteo,2013-04-08 10:48:00,
2013-04-08 05:53:00,32.0,30.0,29.80,NE,35,1.0,3.0,93,0.01,,,0.22,Meteo,2013-04-08 10:53:00,
2013-04-08 05:58:00,32.0,30.0,29.79,North,3,0.0,1.0,93,0.01,,,0.22,Meteo,2013-04-08 10:58:00,
2013-04-08 06:03:00,32.0,30.0,29.80,North,0,0.0,1.0,93,0.01,,,0.22,Meteo,2013-04-08 11:03:00,
2013-04-08 06:08:00,32.0,30.0,29.80,NNE,22,1.0,1.0,93,0.01,,,0.22,Meteo,2013-04-08 11:08:00,
2013-04-08 06:13:00,32.0,30.0,29.80,North,3,1.0,1.0,94,0.00,,,0.22,Meteo,2013-04-08 11:13:00,
2013-04-08 06:19:00,32.0,30.0,29.80,NNE,28,1.0,2.0,94,0.00,,,0.22,Meteo,2013-04-08 11:19:00,
2013-04-08 06:25:00,32.0,30.0,29.80,North,2,1.0,2.0,93,0.00,,,0.22,Meteo,2013-04-08 11:25:00,
2013-04-08 06:30:00,32.0,30.0,29.80,North,357,1.0,2.0,93,0.00,,,0.22,Meteo,2013-04-08 11:30:00,
2013-04-08 06:35:00,32.0,30.0,29.80,North,1,1.0,2.0,94,0.00,,,0.22,Meteo,2013-04-08 11:35:00,
2013-04-08 06:40:00,32.0,30.0,29.80,North,11,2.0,3.0,93,0.00,,,0.22,Meteo,2013-04-08 11:40:00,
2013-04-08 06:45:00,32.0,30.0,29.80,NE,53,1.0,2.0,94,0.00,,,0.22,Meteo,2013-04-08 11:45:00,
2013-04-08 06:50:00,32.0,30.0,29.80,NNE,30,2.0,4.0,94,0.00,,,0.22,Meteo,2013-04-08 11:50:00,
2013-04-08 06:55:00,32.0,30.0,29.80,NNE,25,2.0,3.0,94,0.00,,,0.22,Meteo,2013-04-08 11:55:00,
2013-04-08 07:00:00,32.0,30.0,29.80,NE,44,2.0,3.0,94,0.00,,,0.22,Meteo,2013-04-08 12:00:00,
2013-04-08 07:06:00,32.0,30.0,29.80,NNE,19,2.0,3.0,94,0.00,,,0.22,Meteo,2013-04-08 12:06:00,
2013-04-08 07:11:00,32.0,30.0,29.80,NE,46,2.0,3.0,94,0.00,,,0.22,Meteo,2013-04-08 12:11:00,
2013-04-08 07:16:00,32.0,30.0,29.80,NNE,14,2.0,3.0,94,0.00,,,0.22,Meteo,2013-04-08 12:16:00,
2013-04-08 07:21:00,32.0,30.0,29.80,NNE,13,2.0,5.0,94,0.00,,,0.22,Meteo,2013-04-08 12:21:00,
2013-04-08 07:26:00,32.0,30.0,29.80,North,2,2.0,3.0,94,0.00,,,0.22,Meteo,2013-04-08 12:26:00,
2013-04-08 07:31:00,32.0,30.0,29.81,North,5,3.0,5.0,94,0.00,,,0.22,Meteo,2013-04-08 12:31:00,
2013-04-08 07:36:00,32.0,30.0,29.81,NNE,12,2.0,3.0,94,0.00,,,0.22,Meteo,2013-04-08 12:36:00,
2013-04-08 07:41:00,32.0,30.0,29.81,North,6,3.0,4.0,94,0.00,,,0.22,Meteo,2013-04-08 12:41:00,
2013-04-08 07:46:00,32.0,30.0,29.81,NNE,23,2.0,3.0,94,0.00,,,0.22,Meteo,2013-04-08 12:46:00,
2013-04-08 07:52:00,32.0,30.0,29.81,NNE,27,1.0,3.0,94,0.00,,,0.22,Meteo,2013-04-08 12:52:00,
2013-04-08 07:57:00,32.0,30.0,29.80,NNE,17,2.0,3.0,94,0.00,,,0.22,Meteo,2013-04-08 12:57:00,
2013-04-08 08:02:00,32.0,30.0,29.80,North,0,2.0,3.0,94,0.00,,,0.22,Meteo,2013-04-08 13:02:00,
2013-04-08 08:07:00,32.0,30.0,29.80,NE,44,2.0,3.0,94,0.00,,,0.22,Meteo,2013-04-08 13:07:00,
2013-04-08 08:12:00,32.0,30.0,29.81,North,354,2.0,5.0,94,0.00,,,0.22,Meteo,2013-04-08 13:12:00,
2013-04-08 08:17:00,32.0,30.0,29.81,NNE,24,1.0,2.0,94,0.00,,,0.22,Meteo,2013-04-08 13:17:00,
2013-04-08 08:23:00,32.0,30.0,29.81,NNE,18,2.0,5.0,94,0.00,,,0.22,Meteo,2013-04-08 13:23:00,
2013-04-08 08:28:00,32.0,30.0,29.81,NNE,12,2.0,3.0,94,0.00,,,0.22,Meteo,2013-04-08 13:28:00,
2013-04-08 08:33:00,32.0,30.0,29.80,NNE,15,3.0,5.0,94,0.00,,,0.22,Meteo,2013-04-08 13:33:00,
2013-04-08 08:39:00,32.0,30.0,29.80,North,6,2.0,4.0,94,0.00,,,0.22,Meteo,2013-04-08 13:39:00,
2013-04-08 08:44:00,32.0,30.0,29.80,NNE,21,3.0,4.0,94,0.00,,,0.22,Meteo,2013-04-08 13:44:00,
2013-04-08 08:50:00,32.0,30.0,29.80,NNE,12,0.0,2.0,94,0.00,,,0.22,Meteo,2013-04-08 13:50:00,
2013-04-08 08:55:00,32.0,30.0,29.80,NNE,26,1.0,2.0,94,0.00,,,0.22,Meteo,2013-04-08 13:55:00,
2013-04-08 09:00:00,32.0,30.0,29.80,NNE,18,1.0,2.0,94,0.00,,,0.22,Meteo,2013-04-08 14:00:00,
2013-04-08 09:05:00,32.0,30.0,29.80,NNE,17,2.0,4.0,94,0.00,,,0.22,Meteo,2013-04-08 14:05:00,
2013-04-08 09:10:00,33.0,31.0,29.80,NNE,19,2.0,3.0,94,0.00,,,0.22,Meteo,2013-04-08 14:10:00,
2013-04-08 09:15:00,33.0,31.0,29.80,North,8,2.0,3.0,94,0.00,,,0.22,Meteo,2013-04-08 14:15:00,
2013-04-08 09:20:00,33.0,31.0,29.80,North,2,2.0,4.0,94,0.00,,,0.22,Meteo,2013-04-08 14:20:00,
2013-04-08 09:25:00,33.0,31.0,29.80,North,359,1.0,3.0,94,0.00,,,0.22,Meteo,2013-04-08 14:25:00,
2013-04-08 09:30:00,33.0,31.0,29.80,NNW,342,2.0,3.0,94,0.00,,,0.22,Meteo,2013-04-08 14:30:00,
2013-04-08 09:35:00,33.0,31.0,29.80,NNE,21,1.0,2.0,94,0.00,,,0.22,Meteo,2013-04-08 14:35:00,
2013-04-08 09:40:00,33.0,31.0,29.80,NE,56,2.0,3.0,94,0.00,,,0.22,Meteo,2013-04-08 14:40:00,
2013-04-08 09:45:00,33.0,31.0,29.80,NNE,28,2.0,3.0,94,0.00,,,0.22,Meteo,2013-04-08 14:45:00,
2013-04-08 09:50:00,33.0,31.0,29.80,NNE,24,1.0,2.0,94,0.00,,,0.22,Meteo,2013-04-08 14:50:00,
2013-04-08 09:55:00,33.0,31.0,29.81,North,357,3.0,5.0,94,0.00,,,0.22,Meteo,2013-04-08 14:55:00,
2013-04-08 10:00:00,33.0,31.0,29.81,NNE,15,1.0,3.0,94,0.00,,,0.22,Meteo,2013-04-08 15:00:00,
2013-04-08 10:05:00,33.0,31.0,29.81,North,0,1.0,2.0,94,0.00,,,0.22,Meteo,2013-04-08 15:05:00,
2013-04-08 10:11:00,33.0,31.0,29.81,North,356,3.0,4.0,94,0.00,,,0.22,Meteo,2013-04-08 15:11:00,
2013-04-08 10:16:00,33.0,31.0,29.81,NNE,13,2.0,3.0,94,0.00,,,0.22,Meteo,2013-04-08 15:16:00,
2013-04-08 10:21:00,33.0,31.0,29.81,NNE,25,2.0,3.0,94,0.00,,,0.22,Meteo,2013-04-08 15:21:00,
2013-04-08 10:26:00,33.0,31.0,29.81,NE,36,0.0,1.0,94,0.00,,,0.22,Meteo,2013-04-08 15:26:00,
2013-04-08 10:31:00,33.0,31.0,29.81,NNE,28,2.0,3.0,94,0.00,,,0.22,Meteo,2013-04-08 15:31:00,
2013-04-08 10:36:00,33.0,32.0,29.81,NNE,18,1.0,2.0,95,0.00,,,0.22,Meteo,2013-04-08 15:36:00,
2013-04-08 10:41:00,33.0,31.0,29.81,North,359,2.0,3.0,94,0.00,,,0.22,Meteo,2013-04-08 15:41:00,
2013-04-08 10:46:00,33.0,31.0,29.82,North,357,2.0,3.0,94,0.00,,,0.22,Meteo,2013-04-08 15:46:00,
2013-04-08 10:51:00,33.0,31.0,29.81,North,3,2.0,3.0,94,0.00,,,0.22,Meteo,2013-04-08 15:51:00,
2013-04-08 10:57:00,33.0,31.0,29.82,ENE,61,1.0,4.0,94,0.00,,,0.22,Meteo,2013-04-08 15:57:00,
2013-04-08 11:02:00,33.0,31.0,29.82,ENE,76,2.0,6.0,94,0.00,,,0.22,Meteo,2013-04-08 16:02:00,
2013-04-08 11:07:00,33.0,31.0,29.81,NE,43,1.0,2.0,94,0.00,,,0.22,Meteo,2013-04-08 16:07:00,
2013-04-08 11:12:00,34.0,32.0,29.81,NE,50,2.0,3.0,94,0.00,,,0.22,Meteo,2013-04-08 16:12:00,
2013-04-08 11:17:00,34.0,32.0,29.82,East,81,2.0,3.0,94,0.00,,,0.22,Meteo,2013-04-08 16:17:00,
2013-04-08 11:22:00,34.0,33.0,29.82,NE,34,1.0,1.0,95,0.00,,,0.22,Meteo,2013-04-08 16:22:00,
2013-04-08 11:27:00,34.0,32.0,29.82,NNE,24,2.0,3.0,94,0.00,,,0.22,Meteo,2013-04-08 16:27:00,
2013-04-08 11:32:00,34.0,32.0,29.82,North,349,2.0,4.0,94,0.00,,,0.22,Meteo,2013-04-08 16:32:00,
2013-04-08 11:37:00,34.0,33.0,29.82,NNE,26,2.0,3.0,95,0.00,,,0.22,Meteo,2013-04-08 16:37:00,
2013-04-08 11:42:00,34.0,32.0,29.83,North,9,2.0,4.0,94,0.00,,,0.22,Meteo,2013-04-08 16:42:00,
2013-04-08 11:47:00,34.0,33.0,29.82,NE,49,0.0,1.0,95,0.00,,,0.22,Meteo,2013-04-08 16:47:00,
2013-04-08 11:52:00,34.0,33.0,29.83,North,2,1.0,2.0,95,0.00,,,0.22,Meteo,2013-04-08 16:52:00,
2013-04-08 11:57:00,34.0,33.0,29.82,NE,50,1.0,3.0,95,0.00,,,0.22,Meteo,2013-04-08 16:57:00,
2013-04-08 12:03:00,34.0,32.0,29.82,ENE,69,1.0,2.0,94,0.00,,,0.22,Meteo,2013-04-08 17:03:00,
2013-04-08 12:08:00,35.0,34.0,29.82,North,3,1.0,2.0,95,0.00,,,0.22,Meteo,2013-04-08 17:08:00,
2013-04-08 12:13:00,35.0,33.0,29.82,NNE,25,2.0,3.0,94,0.00,,,0.22,Meteo,2013-04-08 17:13:00,
2013-04-08 12:18:00,35.0,34.0,29.83,North,0,1.0,2.0,95,0.00,,,0.22,Meteo,2013-04-08 17:18:00,
2013-04-08 12:23:00,35.0,34.0,29.82,North,0,1.0,2.0,95,0.00,,,0.22,Meteo,2013-04-08 17:23:00,
2013-04-08 12:28:00,35.0,33.0,29.82,NNE,25,3.0,5.0,94,0.00,,,0.22,Meteo,2013-04-08 17:28:00,
2013-04-08 12:33:00,34.0,32.0,29.82,North,11,2.0,4.0,94,0.00,,,0.22,Meteo,2013-04-08 17:33:00,
2013-04-08 12:38:00,34.0,33.0,29.82,NNE,12,3.0,4.0,95,0.00,,,0.22,Meteo,2013-04-08 17:38:00,
2013-04-08 12:43:00,34.0,32.0,29.82,North,10,2.0,3.0,94,0.00,,,0.22,Meteo,2013-04-08 17:43:00,
2013-04-08 12:48:00,35.0,34.0,29.82,North,352,3.0,5.0,95,0.00,,,0.22,Meteo,2013-04-08 17:48:00,
2013-04-08 12:53:00,34.0,33.0,29.83,NNW,344,2.0,4.0,95,0.00,,,0.22,Meteo,2013-04-08 17:53:00,
2013-04-08 12:58:00,34.0,32.0,29.83,NNE,13,2.0,4.0,94,0.00,,,0.22,Meteo,2013-04-08 17:58:00,
2013-04-08 13:03:00,34.0,32.0,29.83,NE,38,1.0,3.0,94,0.00,,,0.22,Meteo,2013-04-08 18:03:00,
2013-04-08 13:08:00,34.0,32.0,29.83,NE,40,2.0,4.0,94,0.00,,,0.22,Meteo,2013-04-08 18:08:00,
2013-04-08 13:13:00,35.0,33.0,29.83,NE,35,3.0,4.0,94,0.00,,,0.22,Meteo,2013-04-08 18:13:00,
2013-04-08 13:18:00,35.0,33.0,29.83,NNE,29,2.0,4.0,94,0.00,,,0.22,Meteo,2013-04-08 18:18:00,
2013-04-08 13:23:00,35.0,34.0,29.83,NNE,25,2.0,3.0,95,0.00,,,0.22,Meteo,2013-04-08 18:23:00,
2013-04-08 13:28:00,35.0,34.0,29.84,North,3,2.0,3.0,95,0.00,,,0.22,Meteo,2013-04-08 18:28:00,
2013-04-08 13:33:00,35.0,34.0,29.84,NE,43,2.0,3.0,95,0.00,,,0.22,Meteo,2013-04-08 18:33:00,
2013-04-08 13:38:00,35.0,34.0,29.84,NNE,29,2.0,3.0,95,0.00,,,0.22,Meteo,2013-04-08 18:38:00,
2013-04-08 13:43:00,35.0,33.0,29.84,NNE,12,2.0,3.0,94,0.00,,,0.22,Meteo,2013-04-08 18:43:00,
2013-04-08 13:48:00,35.0,34.0,29.84,North,360,2.0,3.0,95,0.00,,,0.22,Meteo,2013-04-08 18:48:00,
2013-04-08 13:53:00,35.0,33.0,29.84,NE,35,2.0,4.0,94,0.00,,,0.22,Meteo,2013-04-08 18:53:00,
2013-04-08 13:58:00,35.0,34.0,29.85,NNE,25,2.0,3.0,95,0.00,,,0.22,Meteo,2013-04-08 18:58:00,
2013-04-08 14:03:00,35.0,34.0,29.85,NE,49,2.0,3.0,95,0.00,,,0.22,Meteo,2013-04-08 19:03:00,
2013-04-08 14:08:00,35.0,34.0,29.85,NE,36,3.0,4.0,95,0.00,,,0.22,Meteo,2013-04-08 19:08:00,
2013-04-08 14:13:00,35.0,34.0,29.85,NE,37,3.0,5.0,95,0.00,,,0.22,Meteo,2013-04-08 19:13:00,
2013-04-08 14:18:00,35.0,34.0,29.85,NNE,23,2.0,3.0,95,0.00,,,0.22,Meteo,2013-04-08 19:18:00,
2013-04-08 14:23:00,35.0,34.0,29.84,NNE,29,2.0,3.0,95,0.00,,,0.22,Meteo,2013-04-08 19:23:00,
2013-04-08 14:28:00,35.0,34.0,29.85,North,1,2.0,3.0,95,0.00,,,0.22,Meteo,2013-04-08 19:28:00,
2013-04-08 14:33:00,35.0,34.0,29.85,NE,35,3.0,4.0,95,0.00,,,0.22,Meteo,2013-04-08 19:33:00,
2013-04-08 14:38:00,35.0,34.0,29.86,North,8,2.0,5.0,95,0.00,,,0.22,Meteo,2013-04-08 19:38:00,
2013-04-08 14:43:00,35.0,34.0,29.86,NNE,32,1.0,3.0,95,0.00,,,0.22,Meteo,2013-04-08 19:43:00,
2013-04-08 14:48:00,35.0,34.0,29.86,NE,50,1.0,2.0,95,0.00,,,0.22,Meteo,2013-04-08 19:48:00,
2013-04-08 14:53:00,35.0,34.0,29.86,NE,51,3.0,5.0,95,0.00,,,0.22,Meteo,2013-04-08 19:53:00,
2013-04-08 14:58:00,35.0,33.0,29.86,NE,51,1.0,2.0,94,0.00,,,0.22,Meteo,2013-04-08 19:58:00,
2013-04-08 15:03:00,35.0,34.0,29.86,North,355,2.0,3.0,95,0.00,,,0.22,Meteo,2013-04-08 20:03:00,
2013-04-08 15:08:00,35.0,33.0,29.86,ENE,71,3.0,5.0,94,0.00,,,0.22,Meteo,2013-04-08 20:08:00,
2013-04-08 15:13:00,35.0,34.0,29.86,NNE,30,2.0,4.0,95,0.00,,,0.22,Meteo,2013-04-08 20:13:00,
2013-04-08 15:18:00,35.0,34.0,29.87,NE,55,3.0,5.0,95,0.00,,,0.22,Meteo,2013-04-08 20:18:00,
2013-04-08 15:23:00,35.0,34.0,29.87,North,0,2.0,4.0,95,0.00,,,0.22,Meteo,2013-04-08 20:23:00,
2013-04-08 15:28:00,35.0,34.0,29.87,ENE,57,2.0,3.0,95,0.00,,,0.22,Meteo,2013-04-08 20:28:00,
2013-04-08 15:33:00,35.0,33.0,29.87,NE,42,1.0,3.0,94,0.00,,,0.22,Meteo,2013-04-08 20:33:00,
2013-04-08 15:38:00,35.0,33.0,29.87,NNE,29,2.0,3.0,94,0.00,,,0.22,Meteo,2013-04-08 20:38:00,
2013-04-08 15:43:00,35.0,34.0,29.87,North,10,3.0,3.0,95,0.00,,,0.22,Meteo,2013-04-08 20:43:00,
2013-04-08 15:48:00,35.0,33.0,29.87,North,4,2.0,3.0,94,0.00,,,0.22,Meteo,2013-04-08 20:48:00,
2013-04-08 15:53:00,35.0,34.0,29.87,NE,36,2.0,4.0,95,0.00,,,0.22,Meteo,2013-04-08 20:53:00,
2013-04-08 15:58:00,35.0,34.0,29.87,NE,43,2.0,3.0,95,0.00,,,0.22,Meteo,2013-04-08 20:58:00,
2013-04-08 16:03:00,35.0,33.0,29.88,NNE,14,2.0,4.0,94,0.00,,,0.22,Meteo,2013-04-08 21:03:00,
2013-04-08 16:09:00,35.0,34.0,29.88,North,8,2.0,4.0,95,0.00,,,0.22,Meteo,2013-04-08 21:09:00,
2013-04-08 16:14:00,35.0,34.0,29.88,NNE,25,2.0,3.0,95,0.00,,,0.22,Meteo,2013-04-08 21:14:00,
2013-04-08 16:20:00,35.0,34.0,29.88,ENE,60,2.0,3.0,95,0.00,,,0.22,Meteo,2013-04-08 21:20:00,
2013-04-08 16:25:00,35.0,33.0,29.88,NE,42,3.0,4.0,94,0.00,,,0.22,Meteo,2013-04-08 21:25:00,
2013-04-08 16:30:00,35.0,33.0,29.88,NNE,33,2.0,4.0,94,0.00,,,0.22,Meteo,2013-04-08 21:30:00,
2013-04-08 16:35:00,35.0,33.0,29.88,NNE,17,2.0,4.0,94,0.00,,,0.22,Meteo,2013-04-08 21:35:00,
2013-04-08 16:40:00,35.0,34.0,29.88,North,10,1.0,3.0,95,0.00,,,0.22,Meteo,2013-04-08 21:40:00,
2013-04-08 16:45:00,35.0,33.0,29.89,North,7,2.0,3.0,94,0.00,,,0.22,Meteo,2013-04-08 21:45:00,
2013-04-08 16:50:00,35.0,33.0,29.89,NE,53,2.0,3.0,94,0.00,,,0.22,Meteo,2013-04-08 21:50:00,
2013-04-08 16:55:00,35.0,33.0,29.89,NNE,29,1.0,3.0,94,0.00,,,0.22,Meteo,2013-04-08 21:55:00,
2013-04-08 17:00:00,35.0,33.0,29.89,NNE,24,2.0,3.0,94,0.00,,,0.22,Meteo,2013-04-08 22:00:00,
2013-04-08 17:05:00,35.0,33.0,29.89,NE,38,1.0,2.0,94,0.00,,,0.22,Meteo,2013-04-08 22:05:00,
2013-04-08 17:11:00,35.0,33.0,29.89,NNE,28,2.0,3.0,94,0.00,,,0.22,Meteo,2013-04-08 22:11:00,
2013-04-08 17:16:00,35.0,33.0,29.90,North,8,2.0,3.0,94,0.00,,,0.22,Meteo,2013-04-08 22:16:00,
2013-04-08 17:21:00,35.0,33.0,29.90,North,0,2.0,5.0,94,0.00,,,0.22,Meteo,2013-04-08 22:21:00,
2013-04-08 17:26:00,35.0,33.0,29.90,North,7,2.0,4.0,94,0.00,,,0.22,Meteo,2013-04-08 22:26:00,
2013-04-08 17:31:00,35.0,33.0,29.91,NNE,20,1.0,2.0,94,0.00,,,0.22,Meteo,2013-04-08 22:31:00,
2013-04-08 17:37:00,35.0,33.0,29.91,NNE,17,2.0,4.0,94,0.00,,,0.22,Meteo,2013-04-08 22:37:00,
2013-04-08 17:42:00,35.0,33.0,29.91,NNE,26,1.0,2.0,94,0.00,,,0.22,Meteo,2013-04-08 22:42:00,
2013-04-08 17:47:00,35.0,33.0,29.91,NNE,28,2.0,2.0,94,0.00,,,0.22,Meteo,2013-04-08 22:47:00,
2013-04-08 17:52:00,34.0,32.0,29.92,NE,39,2.0,3.0,94,0.00,,,0.22,Meteo,2013-04-08 22:52:00,
2013-04-08 17:57:00,35.0,33.0,29.92,ENE,58,2.0,3.0,94,0.00,,,0.22,Meteo,2013-04-08 22:57:00,
2013-04-08 18:02:00,35.0,33.0,29.92,North,359,2.0,4.0,94,0.00,,,0.22,Meteo,2013-04-08 23:02:00,
2013-04-08 18:07:00,34.0,32.0,29.92,NNE,15,2.0,3.0,94,0.00,,,0.22,Meteo,2013-04-08 23:07:00,
2013-04-08 18:12:00,34.0,32.0,29.92,NNE,12,2.0,3.0,94,0.00,,,0.22,Meteo,2013-04-08 23:12:00,
2013-04-08 18:17:00,34.0,32.0,29.93,North,10,3.0,4.0,94,0.00,,,0.22,Meteo,2013-04-08 23:17:00,
2013-04-08 18:22:00,34.0,32.0,29.93,North,9,3.0,4.0,94,0.00,,,0.22,Meteo,2013-04-08 23:22:00,
2013-04-08 18:27:00,34.0,32.0,29.93,NNE,24,2.0,3.0,94,0.00,,,0.22,Meteo,2013-04-08 23:27:00,
2013-04-08 18:32:00,34.0,32.0,29.93,North,350,3.0,5.0,94,0.00,,,0.22,Meteo,2013-04-08 23:32:00,
2013-04-08 18:37:00,34.0,32.0,29.94,NNW,339,2.0,5.0,94,0.00,,,0.22,Meteo,2013-04-08 23:37:00,
2013-04-08 18:43:00,34.0,32.0,29.94,North,1,1.0,2.0,94,0.00,,,0.22,Meteo,2013-04-08 23:43:00,
2013-04-08 18:48:00,34.0,32.0,29.94,NNE,23,2.0,3.0,94,0.00,,,0.22,Meteo,2013-04-08 23:48:00,
2013-04-08 18:53:00,34.0,32.0,29.95,NE,47,1.0,2.0,94,0.00,,,0.22,Meteo,2013-04-08 23:53:00,
2013-04-08 18:58:00,34.0,32.0,29.95,NE,47,0.0,1.0,94,0.00,,,0.22,Meteo,2013-04-08 23:58:00,
2013-04-08 19:04:00,34.0,32.0,29.95,NE,45,1.0,1.0,94,0.00,,,0.00,Meteo,2013-04-09 00:04:00,
2013-04-08 19:09:00,34.0,32.0,29.95,NE,34,1.0,3.0,94,0.00,,,0.00,Meteo,2013-04-09 00:09:00,
2013-04-08 19:14:00,34.0,32.0,29.96,NNE,27,0.0,1.0,94,0.00,,,0.00,Meteo,2013-04-09 00:14:00,
2013-04-08 19:20:00,34.0,32.0,29.96,NE,49,1.0,2.0,94,0.00,,,0.00,Meteo,2013-04-09 00:20:00,
2013-04-08 19:25:00,34.0,32.0,29.97,NE,47,0.0,1.0,94,0.00,,,0.00,Meteo,2013-04-09 00:25:00,
2013-04-08 19:30:00,34.0,32.0,29.97,North,0,0.0,0.0,94,0.00,,,0.00,Meteo,2013-04-09 00:30:00,
2013-04-08 19:36:00,34.0,32.0,29.98,North,0,0.0,2.0,94,0.00,,,0.00,Meteo,2013-04-09 00:36:00,
2013-04-08 19:41:00,34.0,32.0,29.98,North,0,1.0,1.0,94,0.00,,,0.00,Meteo,2013-04-09 00:41:00,
2013-04-08 19:46:00,34.0,32.0,29.99,North,0,0.0,1.0,94,0.00,,,0.00,Meteo,2013-04-09 00:46:00,
2013-04-08 19:51:00,34.0,32.0,29.99,North,0,1.0,1.0,94,0.00,,,0.00,Meteo,2013-04-09 00:51:00,
2013-04-08 19:56:00,34.0,32.0,29.99,North,11,1.0,2.0,94,0.00,,,0.00,Meteo,2013-04-09 00:56:00,
2013-04-08 20:01:00,34.0,32.0,29.99,NE,54,1.0,1.0,94,0.00,,,0.00,Meteo,2013-04-09 01:01:00,
2013-04-08 20:06:00,34.0,32.0,29.99,ENE,69,0.0,1.0,94,0.00,,,0.00,Meteo,2013-04-09 01:06:00,
2013-04-08 20:11:00,34.0,32.0,29.99,North,0,0.0,0.0,94,0.00,,,0.00,Meteo,2013-04-09 01:11:00,
2013-04-08 20:16:00,34.0,32.0,29.99,East,86,1.0,2.0,94,0.00,,,0.00,Meteo,2013-04-09 01:16:00,
2013-04-08 20:21:00,34.0,32.0,30.00,East,86,1.0,1.0,94,0.00,,,0.00,Meteo,2013-04-09 01:21:00,
2013-04-08 20:26:00,34.0,32.0,30.00,East,86,1.0,2.0,94,0.00,,,0.00,Meteo,2013-04-09 01:26:00,
2013-04-08 20:31:00,34.0,32.0,30.01,North,0,0.0,0.0,94,0.00,,,0.00,Meteo,2013-04-09 01:31:00,
2013-04-08 20:37:00,34.0,32.0,30.01,North,0,0.0,0.0,94,0.00,,,0.00,Meteo,2013-04-09 01:37:00,
2013-04-08 20:43:00,34.0,32.0,30.01,ENE,75,1.0,1.0,94,0.00,,,0.00,Meteo,2013-04-09 01:43:00,
2013-04-08 20:48:00,34.0,32.0,30.01,North,0,0.0,0.0,94,0.00,,,0.00,Meteo,2013-04-09 01:48:00,
2013-04-08 20:53:00,34.0,32.0,30.02,North,0,0.0,0.0,94,0.00,,,0.00,Meteo,2013-04-09 01:53:00,
2013-04-08 20:58:00,34.0,32.0,30.02,ENE,75,0.0,1.0,94,0.00,,,0.00,Meteo,2013-04-09 01:58:00,
2013-04-08 21:03:00,34.0,32.0,30.02,North,0,0.0,0.0,94,0.00,,,0.00,Meteo,2013-04-09 02:03:00,
2013-04-08 21:08:00,34.0,32.0,30.02,North,0,0.0,0.0,94,0.00,,,0.00,Meteo,2013-04-09 02:08:00,
2013-04-08 21:13:00,34.0,32.0,30.02,ENE,78,0.0,2.0,94,0.00,,,0.00,Meteo,2013-04-09 02:13:00,
2013-04-08 21:18:00,34.0,32.0,30.02,ENE,78,1.0,2.0,94,0.00,,,0.00,Meteo,2013-04-09 02:18:00,
2013-04-08 21:23:00,34.0,32.0,30.02,ENE,78,1.0,1.0,94,0.00,,,0.00,Meteo,2013-04-09 02:23:00,
2013-04-08 21:28:00,34.0,32.0,30.03,North,0,0.0,0.0,94,0.00,,,0.00,Meteo,2013-04-09 02:28:00,
2013-04-08 21:33:00,34.0,32.0,30.03,North,0,0.0,0.0,94,0.00,,,0.00,Meteo,2013-04-09 02:33:00,
2013-04-08 21:38:00,34.0,32.0,30.03,North,0,0.0,0.0,94,0.00,,,0.00,Meteo,2013-04-09 02:38:00,
2013-04-08 21:43:00,34.0,32.0,30.03,North,0,0.0,0.0,94,0.00,,,0.00,Meteo,2013-04-09 02:43:00,
2013-04-08 21:48:00,34.0,32.0,30.03,North,0,0.0,0.0,94,0.00,,,0.00,Meteo,2013-04-09 02:48:00,
2013-04-08 21:53:00,34.0,32.0,30.03,North,0,0.0,0.0,94,0.00,,,0.00,Meteo,2013-04-09 02:53:00,
2013-04-08 21:58:00,34.0,32.0,30.03,North,0,0.0,0.0,94,0.00,,,0.00,Meteo,2013-04-09 02:58:00,
2013-04-08 22:03:00,34.0,32.0,30.03,North,0,0.0,0.0,94,0.00,,,0.00,Meteo,2013-04-09 03:03:00,
2013-04-08 22:08:00,34.0,32.0,30.03,North,0,0.0,0.0,94,0.00,,,0.00,Meteo,2013-04-09 03:08:00,
2013-04-08 22:13:00,34.0,32.0,30.03,North,0,0.0,0.0,94,0.00,,,0.00,Meteo,2013-04-09 03:13:00,
2013-04-08 22:19:00,34.0,32.0,30.03,ENE,78,0.0,2.0,94,0.00,,,0.00,Meteo,2013-04-09 03:19:00,
2013-04-08 22:24:00,34.0,32.0,30.03,North,0,0.0,0.0,94,0.00,,,0.00,Meteo,2013-04-09 03:24:00,
2013-04-08 22:30:00,34.0,32.0,30.03,North,0,0.0,0.0,94,0.00,,,0.00,Meteo,2013-04-09 03:30:00,
2013-04-08 22:36:00,34.0,32.0,30.03,North,0,0.0,0.0,94,0.00,,,0.00,Meteo,2013-04-09 03:36:00,
2013-04-08 22:41:00,34.0,32.0,30.03,North,0,0.0,0.0,94,0.00,,,0.00,Meteo,2013-04-09 03:41:00,
2013-04-08 22:46:00,34.0,32.0,30.03,North,0,0.0,0.0,94,0.00,,,0.00,Meteo,2013-04-09 03:46:00,
2013-04-08 22:51:00,34.0,32.0,30.03,North,0,0.0,0.0,94,0.00,,,0.00,Meteo,2013-04-09 03:51:00,
2013-04-08 22:57:00,34.0,32.0,30.03,North,0,0.0,0.0,94,0.00,,,0.00,Meteo,2013-04-09 03:57:00,
2013-04-08 23:01:00,34.0,32.0,30.04,North,0,0.0,0.0,94,0.00,,,0.00,Meteo,2013-04-09 04:01:00,
2013-04-08 23:05:00,34.0,32.0,30.04,North,0,0.0,0.0,94,0.00,,,0.00,Meteo,2013-04-09 04:05:00,
2013-04-08 23:08:00,34.0,32.0,30.04,North,0,0.0,0.0,94,0.00,,,0.00,Meteo,2013-04-09 04:08:00,
2013-04-08 23:11:00,34.0,32.0,30.04,North,0,0.0,0.0,94,0.00,,,0.00,Meteo,2013-04-09 04:11:00,
2013-04-08 23:16:00,34.0,32.0,30.04,ENE,78,0.0,1.0,94,0.00,,,0.00,Meteo,2013-04-09 04:16:00,
2013-04-08 23:21:00,34.0,32.0,30.03,North,0,0.0,0.0,94,0.00,,,0.00,Meteo,2013-04-09 04:21:00,
2013-04-08 23:26:00,34.0,32.0,30.03,North,0,0.0,0.0,94,0.00,,,0.00,Meteo,2013-04-09 04:26:00,
2013-04-08 23:31:00,34.0,32.0,30.03,North,0,0.0,0.0,94,0.00,,,0.00,Meteo,2013-04-09 04:31:00,
2013-04-08 23:36:00,34.0,32.0,30.03,North,0,0.0,0.0,94,0.00,,,0.00,Meteo,2013-04-09 04:36:00,
2013-04-08 23:41:00,34.0,32.0,30.03,North,0,0.0,0.0,94,0.00,,,0.00,Meteo,2013-04-09 04:41:00,
2013-04-08 23:46:00,34.0,32.0,30.04,North,0,0.0,0.0,94,0.00,,,0.00,Meteo,2013-04-09 04:46:00,
2013-04-08 23:51:00,34.0,32.0,30.04,North,0,0.0,0.0,94,0.00,,,0.00,Meteo,2013-04-09 04:51:00,
2013-04-08 23:57:00,34.0,32.0,30.03,North,0,0.0,0.0,94,0.00,,,0.00,Meteo,2013-04-09 04:57:00,